Find Starlink 30370

NORAD ID: 57751 Int'l Des: 2023-131 Owner: SPXS Country: US Constellation: starlink operational
LEOCIRCULAR

实时位置

正在加载3D地球...

关于 Starlink 30370

正在加载描述...

即将过境

Passes for default location (London). Set your location on the main map for personalized predictions.

高度历史

Loading altitude history...

两行轨道根数

1 57751U 23131V 26121.96783861 .00026448 00000-0 91028-3 0 9992
2 57751 43.0001 216.3504 0002125 318.3108 41.7583 15.29561864148244
Epoch: May 1, 2026 • Age: 9 hours

当前状态

高度 483.4 km
速度 7.63 km/s
星下点 -29.38°S, 169.48°W
发射日期 Sep 1, 2023
运行时间 2.6 years
类型 internet

技术详情

分类 Payload
质量 730.00 kg
干质量 700.00 kg
总质量 730.00 kg
长度 0.30 m
直径 4.10 m
跨度 29.00 m
形状 Box + pan
制造商 SPXS
平台类型 Starlink V2M
阶段状态 In Orbit
所有者/国家 SPXS/US

Most Searched